Back to catalog

STARLINK-4049

AliveCommunicationsVLEO
NORAD 52840·PAYLOAD·🇺🇸 United States

Launched Jun 17, 2022 from Cape Canaveral Space Force Station

Loading…

Next Passes (next 24 hours)

TLE

FreshSource: CelesTrak SupGP

Epoch: Sep 15, 2026, 01:25 UTC

1 52840C 22062L   26258.05951389 -.00029912  00000+0 -96169-3 0  2580
2 52840  53.1602 228.7412 0001276  91.7649 201.0358 15.31723033    14

Track STARLINK-4049 in real time with AllMySat

Download on the App Store